TimeCDT,TemperatureF,Dew PointF,Humidity,Sea Level PressureIn,VisibilityMPH,Wind Direction,Wind SpeedMPH,Gust SpeedMPH,PrecipitationIn,Events,Conditions,WindDirDegrees,DateUTC
12:53 AM,34.0,30.9,89,30.08,9.0,Variable,3.5,-,0.00,Snow,Light Snow,0,2012-10-06 05:53:00
1:53 AM,35.1,30.9,85,30.08,10.0,Variable,4.6,-,0.00,,Overcast,0,2012-10-06 06:53:00
2:26 AM,35.6,30.2,81,30.05,10.0,Variable,5.8,-,0.00,,Overcast,0,2012-10-06 07:26:00
2:53 AM,34.0,30.9,89,30.09,10.0,Variable,4.6,-,0.00,,Overcast,0,2012-10-06 07:53:00
3:53 AM,34.0,30.0,85,30.11,8.0,Calm,Calm,-,0.00,Snow,Light Snow,0,2012-10-06 08:53:00
4:50 AM,33.8,30.2,87,30.08,10.0,WNW,4.6,-,0.00,,Overcast,290,2012-10-06 09:50:00
4:53 AM,33.1,30.0,89,30.12,10.0,Variable,5.8,-,0.00,,Overcast,0,2012-10-06 09:53:00
5:53 AM,33.1,30.0,89,30.14,6.0,NW,6.9,-,0.00,Snow,Light Snow,310,2012-10-06 10:53:00
6:26 AM,33.8,30.2,87,30.11,10.0,Variable,4.6,-,0.00,,Overcast,0,2012-10-06 11:26:00
6:45 AM,33.8,30.2,87,30.11,8.0,Variable,4.6,-,0.00,Snow,Light Snow,0,2012-10-06 11:45:00
6:53 AM,33.1,30.0,89,30.16,10.0,Variable,4.6,-,0.00,,Overcast,0,2012-10-06 11:53:00
7:08 AM,33.8,30.2,87,30.12,10.0,Variable,5.8,-,N/A,,Overcast,0,2012-10-06 12:08:00
7:53 AM,34.0,30.0,85,30.18,10.0,Variable,4.6,-,N/A,,Overcast,0,2012-10-06 12:53:00
8:14 AM,33.8,30.2,87,30.15,10.0,Variable,3.5,-,N/A,,Overcast,0,2012-10-06 13:14:00
9:53 AM,36.0,28.9,76,30.22,10.0,Variable,4.6,-,N/A,,Overcast,0,2012-10-06 14:53:00
10:53 AM,37.9,26.1,62,30.25,10.0,Variable,4.6,-,N/A,,Overcast,0,2012-10-06 15:53:00
11:53 AM,37.9,25.0,60,30.25,10.0,Calm,Calm,-,N/A,,Overcast,0,2012-10-06 16:53:00
12:53 PM,39.9,25.0,55,30.25,10.0,NNW,5.8,-,0.00,Rain,Light Rain,340,2012-10-06 17:53:00
1:53 PM,41.0,25.0,53,30.23,10.0,Calm,Calm,-,0.00,,Overcast,0,2012-10-06 18:53:00
2:53 PM,41.0,19.9,43,30.23,10.0,Variable,6.9,-,N/A,,Overcast,0,2012-10-06 19:53:00
3:53 PM,41.0,21.0,45,30.22,10.0,Variable,4.6,-,N/A,,Overcast,0,2012-10-06 20:53:00
4:53 PM,41.0,21.0,45,30.22,10.0,Variable,4.6,-,N/A,,Overcast,0,2012-10-06 21:53:00
5:53 PM,39.9,21.0,47,30.23,10.0,Variable,3.5,-,N/A,,Overcast,0,2012-10-06 22:53:00
6:53 PM,39.0,21.0,49,30.23,10.0,Calm,Calm,-,N/A,,Overcast,0,2012-10-06 23:53:00
7:53 PM,35.1,23.0,61,30.24,10.0,Calm,Calm,-,N/A,,Overcast,0,2012-10-07 00:53:00
8:53 PM,33.1,24.1,70,30.24,10.0,Calm,Calm,-,N/A,,Overcast,0,2012-10-07 01:53:00
9:53 PM,33.1,25.0,72,30.24,10.0,Calm,Calm,-,N/A,,Overcast,0,2012-10-07 02:53:00
11:53 PM,32.0,26.1,79,30.22,10.0,Calm,Calm,-,N/A,,Overcast,0,2012-10-07 04:53:00